Regional Weather Roundup
Issued by NWS

Home | Current Version | Previous Version | Graphics & Text | Print | Product List | Glossary On
Versions: 1 2 3 4 5 6 7 8 9 10 11 12 13 14 15 16 17 18 19 20 21 22 23 24 25 26 27 28 29 30 31 32 33 34 35 36 37 38 39 40 41 42 43 44 45 46 47 48 49 50
000
ASUS45 KBOU 151507
RWRCO

WEATHER ROUNDUP FOR COLORADO
NATIONAL WEATHER SERVICE DENVER/BOULDER CO
900 AM MDT MON SEP 15 2014

NOTE: "FAIR" INDICATES FEW OR NO CLOUDS BELOW 12000 FEET WITH NO
SIGNIFICANT WEATHER AND/OR OBSTRUCTIONS TO VISIBILITY.

COZ001>005-013-030-031-151600-
...NORTHWEST COLORADO...

CITY           SKY/WX    TMP DP  RH WIND       PRES   REMARKS
CRAIG          PTSUNNY   52  42  69 CALM      30.32R
HAYDEN         SUNNY     54  36  50 E14       30.33S
MEEKER         SUNNY     56  39  53 SE5       30.32S
MOUNT WERNER   NOT AVBL
STEAMBOAT SPGS SUNNY     49  38  67 CALM      30.36S
WALDEN         SUNNY     45  34  65 CALM      30.43R
$$

COZ006>008-011-151600-
...WEST CENTRAL VALLEYS...

CITY           SKY/WX    TMP DP  RH WIND       PRES   REMARKS
GRAND JUNCTION MOSUNNY   63  44  50 SE9       30.21R
MONTROSE       SUNNY     61  41  47 W3        30.30R
EAGLE          SUNNY     48  39  71 CALM      30.41S
RIFLE          SUNNY     56  40  55 CALM      30.29R
DELTA          SUNNY     62  40  43 NE7       30.27S HAZE
NUCLA          SUNNY     61  41  48 E3        30.32R
$$

COZ017>023-064>068-151600-
...SOUTHWEST COLORADO...

CITY           SKY/WX    TMP DP  RH WIND       PRES   REMARKS
DURANGO        SUNNY     62  43  49 VRB3      30.34S
CORTEZ         SUNNY     61  44  53 CALM      30.29S
PAGOSA SPRINGS NOT AVBL
TELLURIDE      NOT AVBL
WOLF CREEK PAS SUNNY     48  34  57 NE10      30.67R
$$

COZ009-010-012-014-032>034-037-058>063-151600-
...CENTRAL COLORADO...

CITY           SKY/WX    TMP DP  RH WIND       PRES   REMARKS
ASPEN          SUNNY     56  36  47 CALM      30.41R
BUENA VISTA    SUNNY     54  32  43 CALM      30.45S
COPPER MTN     SUNNY     52  27  37 W7        30.67S
BERTHOUD PASS  FAIR      41  37  87 NW9       30.71R
COTTONWOOD PAS SUNNY     59  28  31 SE5       30.55R
GUNNISON       SUNNY     46  36  66 CALM      30.49R
KREMMLING      SUNNY     46  34  61 CALM      30.45S
LEADVILLE      SUNNY     48  31  51 CALM      30.54R
MONARCH PASS   SUNNY     50  27  40 E5        30.78R
SALIDA         SUNNY     53  35  49 N3        30.50S
SUNLIGHT       SUNNY     54  32  43 CALM      30.60S
WILKERSON PASS NOT AVBL
$$

COZ069>075-151600-
...SAN LUIS VALLEY/SANGRE DE CRISTO MOUNTAINS...

CITY           SKY/WX    TMP DP  RH WIND       PRES   REMARKS
ALAMOSA        SUNNY     58  46  64 CALM      30.41S
LA VETA PASS   NOT AVBL
SAGUACHE       NOT AVBL
$$

COZ035-036-038>040-151600-
...NORTHERN COLORADO FRONT RANGE...

CITY           SKY/WX    TMP DP  RH WIND       PRES   REMARKS
DENVER INTL AP MOSUNNY   55  46  71 NE6       30.36S
DMNS CITY PARK   N/A     58  44  58 E6        30.37R
AURORA         MOSUNNY   52  47  84 VRB3      30.38R
FRONT RANGE AP PTSUNNY   54  48  82 N5        30.37
ERIE MUNI ARPT SUNNY     55  46  71 CALM      30.36S
BOULDER MUN AP SUNNY     55  46  71 CALM      30.35S
CENTENNIAL     MOSUNNY   54  45  71 N5        30.37S
BROOMFIELD     SUNNY     55  45  67 E3        30.37S
FORT COLLINS   SUNNY     50  45  81 SE5       30.38R
LONGMONT       SUNNY     58  47  66 SE3       30.38R HAZE
$$

COZ041-046-047-076>085-087-088-151600-
...PIKES PEAK/PALMER DIVIDE AND SOUTHERN FOOTHILLS...

CITY           SKY/WX    TMP DP  RH WIND       PRES   REMARKS
COLO. SPRINGS  MOSUNNY   62  39  42 NW16G29   30.32R
A. F. ACADEMY  SUNNY     57  40  53 N21       30.35R
ELLICOTT       NOT AVBL
FALCON         SUNNY     56  39  53 N21G30    30.35R
FORT CARSON    SUNNY     61  42  49 N23       30.30R
LIMON          CLOUDY    49  49 100 N16       30.35R FOG
MONUMENT HILL  SUNNY     52  43  71 NW10      30.40R
TRINIDAD       MOSUNNY   59  49  69 E12       30.35R
$$

COZ042>045-048>051-090-091-151600-
...NORTHEAST COLORADO...

CITY           SKY/WX    TMP DP  RH WIND       PRES   REMARKS
GREELEY ARPT     N/A    N/A N/A N/A MISG        N/A
AKRON          CLOUDY    47  47 100 N15       30.33R FOG
BURLINGTON     LGT RAIN  53  52  96 N15       30.29R FOG
WRAY           CLOUDY    53  49  87 N17       30.31R
STERLING       CLOUDY    54  46  76 NE7       30.34R
HOLYOKE        CLOUDY    54  46  76 N12       30.33R
FORT MORGAN    MOSUNNY   53  46  77 N9        30.36R
$$

COZ086-089-092>099-151600-
...SOUTHEAST COLORADO...

CITY           SKY/WX    TMP DP  RH WIND       PRES   REMARKS
PUEBLO         MOSUNNY   63  47  55 SE16      30.29R
LA JUNTA       CLOUDY    58  52  80 N14       30.29R
LAMAR          CLOUDY    58  55  90 NE12G22   30.25R FOG
SPRINGFIELD      N/A     57  56  96 N26       30.23R
$$


USA.gov is the U.S. government's official web portal to all federal, state and local government web resources and services.